Oceana NAS, VA

11:00 AM EDT on April 25, 2017 (GMT -0400)
Oceana Naval Air Station

Weather History for KNTU - August, 2013

Change the Weather History Date:

Sunday, August 18, 2013

  Actual Average Record
Temperature  
Mean Temperature 75 °F -  
Max Temperature 81 °F 83 °F 96 °F (2016)
Min Temperature 69 °F 67 °F 64 °F (2008)
Cooling Degree Days 10    
Growing Degree Days 25 (Base 50)    
Moisture  
Dew Point 71 °F    
Average Humidity 91    
Maximum Humidity 100    
Minimum Humidity 77    
Precipitation  
Precipitation 0.42 in - - ()
Sea Level Pressure  
Sea Level Pressure 30.12 in    
Wind  
Wind Speed 12 mph (NNE)    
Max Wind Speed 16 mph    
Max Gust Speed 23 mph    
Visibility 8 miles    
Events Rain    
Averages and records for this station are not official NWS values.
T = Trace of Precipitation, MM = Missing Value Source: NWS Daily Summary

Daily Weather History Graph

Daily Weather History Graph

Search for Another Location

Airport or City:

Trip Planner

Search our weather history database for the weather conditions in past years. The results will help you decide how hot, cold, wet, or windy it might be!

Date:

Astronomy

Aug. 18, 2013 Rise Set
Actual Time 6:23 AM EDT 7:51 PM EDT
Civil Twilight 5:56 AM EDT 8:18 PM EDT
Nautical Twilight 5:23 AM EDT 8:51 PM EDT
Astronomical Twilight 4:49 AM EDT 9:25 PM EDT
Moon 5:54 PM EDT (8/18) 3:32 AM EDT (8/18)
Length of Visible Light 14h 21m
Length of Day
13h 27m
Waxing Gibbous, 92% of the Moon is Illuminated
Aug 18
Waxing Gibbous
Aug 20
Full
Aug 28
Last Quarter
Sep 5
New
Sep 12
First Quarter

Hourly Weather History & Observations

Time (EDT) Temp. Heat Index Dew Point Humidity Pressure Visibility Wind Dir Wind Speed Gust Speed Precip Events Conditions
12:36 AM 73.4 °F - 71.6 °F 94% 30.12 in 10.0 mi ENE 15.0 mph 23.0 mph 0.02 in Rain Light Rain
12:49 AM 73.4 °F - 71.6 °F 94% 30.11 in 2.5 mi ENE 13.8 mph - 0.07 in Rain Light Rain
12:56 AM 73.0 °F - 72.0 °F 96% 30.12 in 2.5 mi East 12.7 mph - 0.07 in Rain Rain
1:09 AM 73.4 °F - 71.6 °F 94% 30.11 in 7.0 mi ENE 16.1 mph - 0.01 in Rain Light Rain
1:26 AM 73.4 °F - 71.6 °F 94% 30.10 in 10.0 mi East 13.8 mph 20.7 mph 0.01 in   Overcast
1:41 AM 73.4 °F - 71.6 °F 94% 30.10 in 9.0 mi ENE 15.0 mph 21.9 mph 0.01 in Rain Light Rain
1:56 AM 73.0 °F - 72.0 °F 96% 30.10 in 6.0 mi ENE 13.8 mph 23.0 mph 0.01 in Rain Light Rain
2:31 AM 73.4 °F - 71.6 °F 94% 30.08 in 2.0 mi ENE 16.1 mph 21.9 mph 0.04 in Rain Rain
2:43 AM 73.4 °F - 71.6 °F 94% 30.08 in 6.0 mi East 15.0 mph 20.7 mph 0.04 in Rain Light Rain
2:56 AM 73.0 °F - 72.0 °F 96% 30.09 in 10.0 mi East 15.0 mph 23.0 mph 0.04 in   Overcast
3:12 AM 73.4 °F - 71.6 °F 94% 30.07 in 8.0 mi East 13.8 mph - 0.00 in Rain Light Rain
3:56 AM 73.0 °F - 72.0 °F 96% 30.08 in 4.0 mi ENE 15.0 mph 20.7 mph 0.02 in Rain Light Rain
4:12 AM 73.4 °F - 71.6 °F 94% 30.07 in 2.5 mi ENE 11.5 mph - 0.02 in Rain Light Rain
4:36 AM 73.4 °F - 71.6 °F 94% 30.06 in 1.5 mi ENE 15.0 mph - 0.15 in Rain Heavy Rain
4:42 AM 73.4 °F - 71.6 °F 94% 30.06 in 1.5 mi East 13.8 mph - 0.21 in Rain Heavy Rain
4:56 AM 73.0 °F - 72.0 °F 96% 30.08 in 6.0 mi ENE 12.7 mph - 0.22 in Rain Light Rain
5:56 AM 73.0 °F - 72.0 °F 96% 30.09 in 5.0 mi East 9.2 mph - 0.01 in Rain Light Rain
6:56 AM 73.9 °F - 72.0 °F 93% 30.11 in 5.0 mi Calm Calm - 0.00 in Rain Light Rain
7:28 AM 73.4 °F - 73.4 °F 100% 30.10 in 5.0 mi Calm Calm - 0.02 in   Overcast
7:51 AM 73.4 °F - 73.4 °F 100% 30.10 in 5.0 mi North 4.6 mph - 0.02 in   Overcast
7:56 AM 73.9 °F - 73.0 °F 97% 30.12 in 6.0 mi NNW 4.6 mph - 0.02 in   Overcast
8:56 AM 75.0 °F - 73.0 °F 94% 30.12 in 5.0 mi North 5.8 mph - N/A   Overcast
9:56 AM 73.9 °F - 73.0 °F 97% 30.14 in 6.0 mi WNW 5.8 mph - 0.00 in Rain Light Rain
10:26 AM 75.2 °F - 73.4 °F 94% 30.13 in 6.0 mi NW 8.1 mph - 0.03 in   Overcast
10:47 AM 75.2 °F - 73.4 °F 94% 30.13 in 6.0 mi WNW 8.1 mph - 0.03 in   Overcast
10:56 AM 77.0 °F - 75.0 °F 94% 30.14 in 10.0 mi WNW 9.2 mph - 0.03 in   Overcast
11:56 AM 75.9 °F - 73.0 °F 91% 30.16 in 10.0 mi West 8.1 mph - N/A   Overcast
12:05 PM 75.2 °F - 71.6 °F 89% 30.15 in 8.0 mi WNW 8.1 mph - 0.00 in Rain Light Rain
12:26 PM 75.2 °F - 73.4 °F 94% 30.14 in 10.0 mi WNW 8.1 mph - 0.00 in   Overcast
12:56 PM 77.0 °F - 73.0 °F 88% 30.14 in 10.0 mi WNW 8.1 mph - 0.00 in   Mostly Cloudy
1:56 PM 79.0 °F - 73.0 °F 82% 30.14 in 10.0 mi NW 12.7 mph - N/A   Mostly Cloudy
2:56 PM 81.0 °F 85.8 °F 73.0 °F 77% 30.13 in 10.0 mi NNW 12.7 mph - N/A   Mostly Cloudy
3:56 PM 79.0 °F - 71.1 °F 77% 30.13 in 10.0 mi NNW 13.8 mph - N/A   Mostly Cloudy
4:56 PM 77.0 °F - 71.1 °F 82% 30.13 in 10.0 mi North 11.5 mph - N/A   Mostly Cloudy
5:56 PM 75.0 °F - 70.0 °F 84% 30.14 in 10.0 mi NNE 8.1 mph - N/A   Mostly Cloudy
6:26 PM 73.4 °F - 69.8 °F 88% 30.14 in 10.0 mi North 6.9 mph - N/A   Overcast
6:56 PM 72.0 °F - 69.1 °F 91% 30.14 in 10.0 mi NE 9.2 mph - N/A   Overcast
7:56 PM 72.0 °F - 68.0 °F 87% 30.16 in 10.0 mi NNE 6.9 mph - N/A   Overcast
8:18 PM 71.6 °F - 68.0 °F 88% 30.16 in 10.0 mi NNE 9.2 mph - 0.00 in   Light Drizzle
8:56 PM 70.0 °F - 66.0 °F 87% 30.17 in 10.0 mi NNE 9.2 mph - 0.00 in   Light Drizzle
9:29 PM 69.8 °F - 66.2 °F 88% 30.18 in 10.0 mi NE 11.5 mph - 0.00 in   Overcast
9:56 PM 70.0 °F - 64.9 °F 84% 30.20 in 10.0 mi NE 10.4 mph - 0.00 in   Overcast
10:30 PM 69.8 °F - 64.4 °F 83% 30.19 in 10.0 mi NE 8.1 mph - N/A   Overcast
10:56 PM 70.0 °F - 66.0 °F 87% 30.20 in 10.0 mi NE 6.9 mph - N/A   Overcast
11:56 PM 70.0 °F - 64.9 °F 84% 30.20 in 10.0 mi NE 4.6 mph - N/A   Overcast